Regional Weather Roundup
Issued by NWS Northern Indiana

Home | Current Version | Previous Version | Graphics & Text | Print | Product List | Glossary On
Versions: 1 2 3 4 5 6 7 8 9 10 11 12 13 14 15 16 17 18 19 20 21 22 23 24 25 26 27 28 29 30 31 32 33 34 35 36 37 38 39 40 41 42 43 44 45 46 47 48 49 50
000
ASUS43 KIWX 190100
RWRIWX

KIWX WEATHER ROUNDUP
NATIONAL WEATHER SERVICE NORTHERN INDIANA
900 PM EDT SAT APR 18 2015

NOTE: "FAIR" INDICATES FEW OR NO CLOUDS BELOW 12,000 FEET WITH NO
SIGNIFICANT WEATHER AND/OR OBSTRUCTIONS TO VISIBILITY.

* THESE STATIONS ARE NOT UNDER NWS QUALITY CONTROL. THEY ALSO MAY NOT
  REPORT WEATHER SUCH AS PRECIPITATION OR FOG.

INZ001>027-190200-
NORTHERN INDIANA

CITY           SKY/WX    TMP DP  RH WIND       PRES   REMARKS
GARY*          MOCLDY    45  34  65 N6        30.02F
SOUTH BEND     MOCLDY    70  46  42 E17G24    30.00R
GOSHEN         MOCLDY    64  43  46 E17       30.02R
ANGOLA*        CLEAR     61  32  33 E14       30.06R
FORT WAYNE     CLOUDY    61  34  36 E20       30.04R
PERU/GRISSOM   MOCLDY    70  53  54 SE3       29.96R

$$
INZ028>050-190200-
CENTRAL INDIANA

CITY           SKY/WX    TMP DP  RH WIND       PRES   REMARKS
LAFAYETTE      PTCLDY    65  49  56 CALM      29.95R
KOKOMO*        MOCLDY    66  50  55 SE5       29.96S
MUNCIE*        PTCLDY    64  51  62 E5        29.98R
INDIANAPOLIS   MOCLDY    68  46  45 E8        29.95R

$$
MIZ043>046-050>051-056>058-064>065-071>073-077>080-190200-
SOUTHWEST LOWER MICHIGAN

CITY           SKY/WX    TMP DP  RH WIND       PRES   REMARKS
BATTLE CREEK   CLEAR     64  28  25 E13       30.06S
BENTON HARBOR  PTCLDY    65  33  30 E14G21    30.00R
COLDWATER*     PTCLDY    62  35  36 E13       30.06R
HILLSDALE*     MOCLDY    60  28  29 E13       30.07S
HOLLAND        CLEAR     60  25  26 E10       30.06S
GRAND RAPIDS   PTCLDY    57  22  25 NE16      30.09S
KALAMAZOO      CLEAR     64  31  28 NE8       30.05S
STURGIS*       MOCLDY    63  39  42 E16G22    30.03R
THREE RIVERS*  FAIR      65  35  33 E8        30.04R

$$
OHZ001>008-015>018-024>025-190200-
NORTHWEST OHIO

CITY           SKY/WX    TMP DP  RH WIND       PRES   REMARKS
DEFIANCE       CLOUDY    59  25  27 E13G20    30.06R
FINDLAY        CLOUDY    59  35  40 NE18      30.05R
TOLEDO EXPRESS MOCLDY    57  19  22 NE17G25   30.07F
TOLEDO METCALF MOCLDY    56  31  38 NE10      30.09F
LIMA           CLOUDY    60  38  43 NE13      30.04R

$$
AND FOR LAKE MICHIGAN COASTAL AND OPEN LAKE BUOY OBSERVATIONS

STATION/POSITION TEMP    WIND        PRES    VSBY  WAVE
                 AIR SEA DIR/SP/G                  HT/PER
                 (F)     (DEG/KT/KT) (MB)    (MI)  (FT/S)
CALUMET HARBOR    43     340/  9/ 14   N/A
MICHIGAN CITY     43     290/  5/  6   N/A
BURNS HARBOR      42     310/  7/  8 1016.9S
SAINT JOSEPH      46     360/  4/ 11 1015.9F
MICHIGAN CITY     41 46  280/  6/  8   N/A           4/ 5

$$
&&


USA.gov is the U.S. government's official web portal to all federal, state and local government web resources and services.